Location: ??
(35.5990°N, 139.7298°E)
Time: 09:13:47
(UTC+00:00)

STARLINK-1365 - Pass Details

Date: 07 June 2020
Orbit: 549 x 550 km, 53.0° (Epoch: 06 July)

Event Time Altitude Azimuth Distance (km) Brightness Sun altitude
Rises 10:51:07 0° 202° (SSW) 2,697 7.0 -10.4°
Reaches altitude 10° 10:53:29 10° 192° (SSW) 1,808 6.0 -10.7°
Maximum altitude 10:57:10 32° 129° (SE) 951 4.3 -11.3°
Drops below altitude 10° 11:00:51 10° 65° (ENE) 1,818 6.0 -11.9°
Sets 11:03:15 0° 56° (NE) 2,715 7.0 -12.3°
